TimeCST,TemperatureF,Dew PointF,Humidity,Sea Level PressureIn,VisibilityMPH,Wind Direction,Wind SpeedMPH,Gust SpeedMPH,PrecipitationIn,Events,Conditions,WindDirDegrees,DateUTC
12:53 AM,51.1,46.9,86,30.20,10.0,NNW,3.5,-,N/A,,Clear,330,2011-11-23 06:53:00
1:53 AM,48.9,46.0,90,30.20,9.0,Calm,Calm,-,N/A,,Clear,0,2011-11-23 07:53:00
2:53 AM,48.0,46.0,93,30.20,6.0,Calm,Calm,-,N/A,,Clear,0,2011-11-23 08:53:00
3:35 AM,46.4,44.6,93,30.21,1.8,Calm,Calm,-,N/A,,Clear,0,2011-11-23 09:35:00
3:53 AM,46.0,45.0,96,30.21,3.0,Calm,Calm,-,N/A,,Clear,0,2011-11-23 09:53:00
4:00 AM,46.4,44.6,93,30.21,2.0,Calm,Calm,-,N/A,,Clear,0,2011-11-23 10:00:00
4:11 AM,46.4,44.6,93,30.21,5.0,Calm,Calm,-,N/A,,Clear,0,2011-11-23 10:11:00
4:25 AM,46.4,42.8,87,30.22,2.5,Calm,Calm,-,N/A,,Partly Cloudy,0,2011-11-23 10:25:00
4:28 AM,46.4,44.6,93,30.22,1.0,Calm,Calm,-,N/A,,Mist,0,2011-11-23 10:28:00
4:37 AM,46.4,42.8,87,30.22,1.0,Calm,Calm,-,N/A,,Mist,0,2011-11-23 10:37:00
4:43 AM,44.6,42.8,93,30.22,2.5,Calm,Calm,-,N/A,,Partly Cloudy,0,2011-11-23 10:43:00
4:50 AM,44.6,42.8,93,30.22,4.0,Calm,Calm,-,N/A,,Partly Cloudy,0,2011-11-23 10:50:00
4:53 AM,44.6,42.8,93,30.22,4.0,Calm,Calm,-,N/A,,Partly Cloudy,0,2011-11-23 10:53:00
5:26 AM,46.4,44.6,93,30.22,2.0,Calm,Calm,-,N/A,,Clear,0,2011-11-23 11:26:00
5:34 AM,44.6,42.8,93,30.22,1.2,North,3.5,-,N/A,,Partly Cloudy,360,2011-11-23 11:34:00
5:37 AM,44.6,42.8,93,30.22,0.8,North,3.5,-,N/A,,Mist,360,2011-11-23 11:37:00
5:51 AM,46.4,44.6,93,30.23,1.2,Calm,Calm,-,N/A,,Scattered Clouds,0,2011-11-23 11:51:00
5:53 AM,46.4,44.6,93,30.23,2.0,Calm,Calm,-,N/A,,Scattered Clouds,0,2011-11-23 11:53:00
6:01 AM,46.4,44.6,93,30.24,4.0,Calm,Calm,-,N/A,,Scattered Clouds,0,2011-11-23 12:01:00
6:10 AM,44.6,42.8,93,30.24,1.8,Calm,Calm,-,N/A,,Partly Cloudy,0,2011-11-23 12:10:00
6:27 AM,44.6,42.8,93,30.24,3.0,Calm,Calm,-,N/A,,Clear,0,2011-11-23 12:27:00
6:42 AM,44.6,42.8,93,30.25,2.5,Calm,Calm,-,N/A,,Clear,0,2011-11-23 12:42:00
6:53 AM,44.1,42.1,93,30.25,4.0,Calm,Calm,-,N/A,,Clear,0,2011-11-23 12:53:00
7:37 AM,44.6,44.6,100,30.27,1.5,Calm,Calm,-,N/A,,Partly Cloudy,0,2011-11-23 13:37:00
7:40 AM,44.6,44.6,100,30.27,0.8,Calm,Calm,-,N/A,,Mist,0,2011-11-23 13:40:00
7:53 AM,46.0,45.0,96,30.28,0.5,Calm,Calm,-,N/A,Fog,Fog,0,2011-11-23 13:53:00
8:10 AM,48.2,46.4,93,30.29,2.0,Calm,Calm,-,N/A,,Mostly Cloudy,0,2011-11-23 14:10:00
8:20 AM,48.2,46.4,93,30.29,3.0,Calm,Calm,-,N/A,,Mostly Cloudy,0,2011-11-23 14:20:00
8:32 AM,50.0,48.2,94,30.29,5.0,Calm,Calm,-,N/A,,Scattered Clouds,0,2011-11-23 14:32:00
8:53 AM,53.1,48.9,86,30.29,7.0,Variable,3.5,-,N/A,,Clear,0,2011-11-23 14:53:00
9:53 AM,57.9,48.0,70,30.29,10.0,NE,6.9,-,N/A,,Clear,40,2011-11-23 15:53:00
10:53 AM,62.1,48.9,62,30.28,10.0,North,8.1,-,N/A,,Clear,10,2011-11-23 16:53:00
11:53 AM,64.9,48.9,56,30.26,10.0,Variable,5.8,-,N/A,,Clear,0,2011-11-23 17:53:00
12:53 PM,68.0,50.0,52,30.23,10.0,North,5.8,-,N/A,,Clear,10,2011-11-23 18:53:00
1:53 PM,69.8,48.2,46,30.21,10.0,North,4.6,-,N/A,,Clear,10,2011-11-23 19:53:00
2:53 PM,69.1,48.0,47,30.20,10.0,NNW,6.9,-,N/A,,Clear,340,2011-11-23 20:53:00
3:53 PM,69.1,48.9,49,30.21,10.0,NNW,5.8,-,N/A,,Clear,340,2011-11-23 21:53:00
4:53 PM,66.0,46.9,50,30.21,10.0,NW,3.5,-,N/A,,Clear,320,2011-11-23 22:53:00
5:53 PM,57.9,48.0,70,30.23,10.0,Calm,Calm,-,N/A,,Clear,0,2011-11-23 23:53:00
6:53 PM,53.1,48.0,83,30.24,10.0,Calm,Calm,-,N/A,,Clear,0,2011-11-24 00:53:00
7:53 PM,52.0,48.9,89,30.26,10.0,NNE,3.5,-,N/A,,Clear,30,2011-11-24 01:53:00
8:53 PM,53.6,48.2,82,30.28,9.0,Calm,Calm,-,N/A,,Clear,0,2011-11-24 02:53:00
9:53 PM,52.0,48.0,86,30.27,8.0,Calm,Calm,-,N/A,,Clear,0,2011-11-24 03:53:00
10:53 PM,53.1,48.0,83,30.27,10.0,Calm,Calm,-,N/A,,Clear,0,2011-11-24 04:53:00
11:53 PM,51.1,48.0,89,30.27,9.0,NE,5.8,-,N/A,,Clear,40,2011-11-24 05:53:00